This demonstration page uses our WeatherBlox Daily Observations layout. Learn more.

36.17497, -115.13722

Hourly Observations for July 17, 2016

Temp ( °F °C ) Dew Point ( °F °C ) Humidity (%) Winds ( mph kmh ) Pressure ( in mb ) Visibility ( mi km ) Precip ( " mm )
12:53 am 00:53 Clear 90 32.2 21 -6.1 8 8 S 8 13 29.59 1002 10 16.09344 0 0
1:53 am 01:53 Clear 89 31.7 24 -4.4 9 9 S 12 19 29.59 1002 10 16.09344 0 0
2:53 am 02:53 Clear 88 31.1 27 -2.8 11 11 S 9 15 29.59 1002 10 16.09344 0 0
3:53 am 03:53 Clear 88 31.1 26 -3.3 10 10 S 14 22 29.59 1002 10 16.09344 0 0
4:53 am 04:53 Clear 86 30 21 -6.1 9 9 S 15 24 29.65 1004 10 16.09344 0 0
5:53 am 05:53 Sunny 85 29.4 23 -5 10 10 S 13 20 29.65 1004 10 16.09344 0 0
6:53 am 06:53 Sunny 88 31.1 23 -5 9 9 S 13 20 29.65 1004 10 16.09344 0 0
7:53 am 07:53 Sunny 91 32.8 22 -5.6 8 8 S 15 24 29.65 1004 10 16.09344 0 0
8:53 am 08:53 Sunny 94 34.4 24 -4.4 8 8 SSW 17 28 29.68 1005 10 16.09344 0 0
9:53 am 09:53 Sunny 97 36.1 21 -6.1 6 6 SSW 13 20 29.68 1005 10 16.09344 0 0
10:53 am 10:53 Sunny 100 37.8 19 -7.2 5 5 SSW 14 22 29.68 1005 10 16.09344 0 0
11:53 am 11:53 Sunny 102 38.9 21 -6.1 5 5 SW 15 24 29.68 1005 10 16.09344 0 0
12:53 pm 12:53 Sunny 104 40 22 -5.6 5 5 SW 17 28 29.62 1003 10 16.09344 0 0
1:53 pm 13:53 Sunny 104 40 28 -2.2 7 7 SSW 18 30 29.62 1003 10 16.09344 0 0
2:53 pm 14:53 Sunny 105 40.6 31 -0.6 7 7 WSW 13 20 29.59 1002 10 16.09344 0 0
3:53 pm 15:53 Sunny 105 40.6 33 0.6 8 8 SW 15 24 29.56 1001 10 16.09344 0 0
4:53 pm 16:53 Sunny 105 40.6 35 1.7 9 9 WSW 13 20 29.56 1001 10 16.09344 0 0
5:53 pm 17:53 Sunny 105 40.6 34 1.1 8 8 W 16 26 29.56 1001 10 16.09344 0 0
6:53 pm 18:53 Sunny 103 39.4 32 0 8 8 WSW 14 22 29.56 1001 10 16.09344 0 0
7:53 pm 19:53 Sunny 101 38.3 32 0 9 9 W 7 11 29.59 1002 10 16.09344 0 0
8:53 pm 20:53 Clear 97 36.1 46 7.8 17 17 S 18 30 29.62 1003 10 16.09344 0 0
9:53 pm 21:53 Clear 96 35.6 46 7.8 18 18 SSW 14 22 29.65 1004 10 16.09344 0 0
10:53 pm 22:53 Clear 95 35 25 -3.9 8 8 WSW 6 9 29.71 1006 10 16.09344 0 0
11:53 pm 23:53 Clear 94 34.4 24 -4.4 8 8 SW 9 15 29.71 1006 10 16.09344 0 0

Powered by AerisWeather